Weather History for Szolnok, Hungary

Change the Weather History Date:

Tuesday, May 14, 2013

  Actual Average (LHBP) Record (LHBP)
Temperature  
Mean Temperature 53 °F -  
Max Temperature 60 °F 70 °F 86 °F (2007)
Min Temperature 46 °F 47 °F 35 °F (2005)
Degree Days  
Heating Degree Days 12    
Growing Degree Days 3 (Base 50)    
Moisture  
Dew Point 48 °F    
Average Humidity 81    
Maximum Humidity 100    
Minimum Humidity 63    
Precipitation  
Precipitation 0.00 in - - ()
Sea Level Pressure  
Sea Level Pressure 29.90 in    
Wind  
Wind Speed 7 mph ()    
Max Wind Speed 11 mph    
Max Gust Speed -    
Visibility 5.5 miles    
Events Rain    
Averages and records for this station are not official NWS values.
T = Trace of Precipitation, MM = Missing Value Source: Averaged Metar Reports

Daily Weather History Graph

Daily Weather History Graph

Search for Another Location

Airport:

Trip Planner

Search our weather history database for the weather conditions in past years. The results will help you decide how hot, cold, wet, or windy it might be!

Date:

Astronomy

May. 14, 2013 Rise Set
Actual Time 5:04 AM CEST 8:07 PM CEST
Civil Twilight 4:28 AM CEST 8:43 PM CEST
Nautical Twilight 3:42 AM CEST 9:29 PM CEST
Astronomical Twilight 2:45 AM CEST 10:26 PM CEST
Moon 8:27 AM CEST (5/14) 11:41 PM CEST (5/14)
Length of Visible Light 16h 14m
Length of Day
15h 02m
Waxing Crescent, 17% of the Moon is Illuminated
May 14
Waxing Crescent
May 18
First Quarter
May 25
Full
May 31
Last Quarter
Jun 8
New

Hourly Weather History & Observations

Time (CEST) Temp. Windchill Dew Point Humidity Pressure Visibility Wind Dir Wind Speed Gust Speed Precip Events Conditions
12:15 AM 53.6 °F - 46.4 °F 77% 29.92 in - West 6.7 mph - N/A   Clear
12:45 AM 53.6 °F - 44.6 °F 72% 29.92 in - West 6.7 mph - N/A   Clear
1:15 AM 51.8 °F - 42.8 °F 71% 29.89 in - West 8.9 mph - N/A   Clear
1:45 AM 50.0 °F - 42.8 °F 76% 29.89 in - West 8.9 mph - N/A   Clear
2:15 AM 50.0 °F - 41.0 °F 71% 29.89 in - WNW 8.9 mph - N/A   Clear
2:45 AM 48.2 °F - 42.8 °F 82% 29.89 in - WNW 8.9 mph - N/A   Clear
3:15 AM 48.2 °F - 42.8 °F 82% 29.89 in - West 6.7 mph - N/A   Clear
3:45 AM - - - N/A% - 3.1 mi WNW 6.7 mph - N/A Rain Rain Showers
4:15 AM 46.4 °F 43.0 °F 42.8 °F 87% 29.89 in - WNW 6.7 mph - N/A   Clear
4:45 AM 46.4 °F 43.0 °F 42.8 °F 87% 29.89 in - WNW 6.7 mph - N/A   Clear
5:15 AM 46.4 °F 43.0 °F 44.6 °F 93% 29.89 in - WNW 6.7 mph - N/A   Clear
5:45 AM 46.4 °F 43.0 °F 44.6 °F 93% 29.89 in - West 6.7 mph - N/A   Clear
6:15 AM 48.2 °F - 44.6 °F 87% 29.89 in - West 8.9 mph - N/A   Clear
6:45 AM - - - N/A% - 3.1 mi WNW 8.9 mph - N/A Rain Rain Showers
7:15 AM 50.0 °F - 44.6 °F 82% 29.89 in - West 8.9 mph - N/A   Clear
7:45 AM 51.8 °F - 44.6 °F 76% 29.92 in - WNW 11.2 mph - N/A   Clear
8:15 AM 53.6 °F - 46.4 °F 77% 29.92 in 6.2 mi WNW 8.9 mph - N/A   Mostly Cloudy
8:45 AM 53.6 °F - 46.4 °F 77% 29.92 in 6.2 mi WNW 11.2 mph - N/A   Scattered Clouds
9:10 AM - - - N/A% - 3.1 mi WNW 8.9 mph - N/A Rain Rain Showers
9:15 AM 53.6 °F - 46.4 °F 77% 29.92 in 6.2 mi WNW 11.2 mph - N/A   Scattered Clouds
9:45 AM - - - N/A% - 3.1 mi WNW 8.9 mph - N/A Rain Rain Showers
10:15 AM 55.4 °F - 44.6 °F 67% 29.92 in 6.2 mi WNW 11.2 mph - N/A   Mostly Cloudy
10:45 AM 55.4 °F - 46.4 °F 72% 29.92 in 6.2 mi WNW 11.2 mph - N/A   Mostly Cloudy
11:15 AM 55.4 °F - 46.4 °F 72% 29.92 in 6.2 mi NW 11.2 mph - N/A   Mostly Cloudy
11:45 AM 57.2 °F - 48.2 °F 72% 29.92 in 6.2 mi WNW 8.9 mph - N/A   Scattered Clouds
12:15 PM 59.0 °F - 50.0 °F 72% 29.92 in 6.2 mi NW 6.7 mph - N/A   Scattered Clouds
12:45 PM - - - N/A% - 3.1 mi NW 8.9 mph - N/A Rain Rain Showers
1:15 PM 59.0 °F - 50.0 °F 72% 29.92 in 6.2 mi NNE 8.9 mph - N/A   Scattered Clouds
1:45 PM - - - N/A% - 3.1 mi NW 8.9 mph - N/A Rain Rain Showers
2:15 PM 59.0 °F - 48.2 °F 67% 29.92 in 6.2 mi NNE 6.7 mph - N/A   Scattered Clouds
2:45 PM 57.2 °F - 53.6 °F 88% 29.92 in 6.2 mi NNE 6.7 mph - N/A   Scattered Clouds
3:15 PM 57.2 °F - 50.0 °F 77% 29.92 in 6.2 mi NE 8.9 mph - N/A   Scattered Clouds
3:45 PM - - - N/A% - 3.1 mi North 6.7 mph - N/A Rain Rain Showers
4:15 PM 59.0 °F - 51.8 °F 77% 29.89 in 6.2 mi NNE 6.7 mph - N/A   Scattered Clouds
4:45 PM 60.8 °F - 48.2 °F 63% 29.89 in 6.2 mi NNE 8.9 mph - N/A   Scattered Clouds
5:15 PM 60.8 °F - 48.2 °F 63% 29.89 in 6.2 mi NNE 6.7 mph - N/A   Scattered Clouds
5:45 PM 59.0 °F - 50.0 °F 72% 29.89 in 6.2 mi NNE 6.7 mph - N/A   Scattered Clouds
6:15 PM 59.0 °F - 51.8 °F 77% 29.89 in 6.2 mi NE 6.7 mph - N/A   Mostly Cloudy
6:38 PM 59.0 °F - 51.8 °F 77% 29.89 in 6.2 mi NNE 6.7 mph - N/A Rain Light Rain Showers
6:45 PM - - - N/A% - 6.2 mi North 6.7 mph - N/A   Clear
7:15 PM 57.2 °F - 51.8 °F 82% 29.89 in 6.2 mi NNE 6.7 mph - N/A Rain Light Rain Showers
7:37 PM 57.2 °F - 51.8 °F 82% 29.89 in 6.2 mi ENE 4.5 mph - N/A   Mostly Cloudy
7:45 PM 57.2 °F - 51.8 °F 82% 29.89 in 6.2 mi NE 4.5 mph - N/A   Mostly Cloudy
8:15 PM 55.4 °F - 53.6 °F 94% 29.89 in 6.2 mi NNE 4.5 mph - N/A   Mostly Cloudy
8:45 PM 55.4 °F - 53.6 °F 94% 29.92 in - NE 4.5 mph - N/A   Clear
9:15 PM 53.6 °F - 53.6 °F 100% 29.92 in - East 2.2 mph - N/A   Clear
9:45 PM - - - N/A% - 6.2 mi Variable 4.5 mph - N/A   Clear
10:15 PM 53.6 °F - 53.6 °F 100% 29.89 in - South 2.2 mph - N/A   Clear
10:45 PM 53.6 °F - 53.6 °F 100% 29.89 in - SSE 2.2 mph - N/A   Clear
11:15 PM 53.6 °F - 53.6 °F 100% 29.89 in - ENE 2.2 mph - N/A   Clear
11:45 PM 53.6 °F - 51.8 °F 94% 29.89 in - Calm Calm - N/A   Clear